Location: Unspecified
(0.0000°N, 0.0000°E)
Time: 09:22:26
(UTC+00:00)

Vanguard 2 - Pass Details

Date: 29 October 2021
Orbit: 554 x 2936 km, 32.9° (Epoch: 06 December)

Event Time Altitude Azimuth Distance (km) Brightness Sun altitude
Rises 18:14:06 0° 222° (SW) 5,336 12.9 -7.4°
Reaches altitude 10° 18:17:23 10° 216° (SW) 4,622 12.3 -8.2°
Maximum altitude 18:30:55 51° 143° (SE) 3,230 10.5 -11.5°
Enters shadow 18:44:57 17° 77° (ENE) 5,153 11.0 -14.9°
Drops below altitude 10° 18:47:55 10° 73° (ENE) 5,739 - -15.6°
Sets 18:52:29 0° 68° (ENE) 6,668 - -16.7°
